Location: Caualo
(45.5667°N, 10.8667°E)
Time: 00:07:56
(UTC+00:00)

In-Cosmos 22 Rocket - Pass Details

Date: 10 October 2020
Orbit: 790 x 889 km, 81.2° (Epoch: 27 October)

Event Time Altitude Azimuth Distance (km) Brightness Sun altitude
Rises 20:44:10 0° 339° (NNW) 3,304 8.0 -41.2°
Reaches altitude 10° 20:46:48 10° 329° (NNW) 2,365 7.1 -41.5°
Enters shadow 20:48:14 17° 319° (NW) 1,918 6.6 -41.7°
